User: anonymous   Login
Location: ??????
(42.0089°N, 44.3281°E)
Time: 12:00:39
(UTC+00:00)
Language:

COSMO-SKYMED 1 - Orbit

View from above orbital plane
View from above orbital plane
View from above satellite
View from above satellite

Ground track
Ground track

The orbit data is extracted from the following two-line orbital elements,

1 31598U 07023A   22022.24152616 -.00000032  00000-0  25772-5 0  9997
2 31598  97.8811 208.0190 0001456  97.7380 262.3963 14.82158408791304
Epoch (UTC): 22 January 2022 05:47:47
Eccentricity: 0.0001456
inclination: 97.8811°
perigee height: 621 km
apogee height: 623 km
right ascension of ascending node: 208.0190°
argument of perigee: 97.7380°
revolutions per day: 14.82158408
mean anomaly at epoch: 262.3963°
orbit number at epoch: 79130

The dashed part of the orbit path shows where the satellite is in the earth's shadow,  

DLR